Regional Weather Roundup
Issued by NWS

Home | Current Version | Previous Version | Text Only | Print | Product List | Glossary On
Versions: 1 2 3 4 5 6 7 8 9 10 11 12 13 14 15 16 17 18 19 20 21 22 23 24 25 26 27 28 29 30 31 32 33 34 35 36 37 38 39 40 41 42 43 44 45 46 47 48 49 50
000
ASUS43 KMKX 241611
RWRWI

WISCONSIN REGIONAL WEATHER ROUNDUP
NATIONAL WEATHER SERVICE MILWAUKEE/SULLIVAN WI
1100 AM CDT TUE MAY 24 2022

NOTE: "FAIR" INDICATES FEW OR NO CLOUDS BELOW 12,000 FEET WITH NO
SIGNIFICANT WEATHER AND/OR OBSTRUCTIONS TO VISIBILITY.

WIZ001-002-006>008-014>016-023>028-241700-
NORTHWEST WISCONSIN

CITY           SKY/WX    TMP DP  RH WIND       PRES   REMARKS
SUPERIOR ARPT  FAIR      66  34  29 SW6       30.22F
ASHLAND        FAIR      65  32  29 SW9       30.24F
HAYWARD        FAIR      62  31  31 SE6       30.25F
SIREN          FAIR      64  32  30 E9        30.25R
CUMBERLAND     FAIR      61  37  41 SE8       30.25S
RICE LAKE      FAIR      64  38  38 E6        30.26S
CHETEK         FAIR      63  35  35 SE7       30.25F
LADYSMITH        N/A     61  40  45 NE3       30.28S
EAU CLAIRE     FAIR      63  37  38 E8G17     30.24F
MENOMONIE        N/A     63  37  37 E7        30.25S
NEW RICHMOND   FAIR      62  33  34 SE8       30.24S
OSCEOLA        FAIR      66  42  40 E10       30.26S
$$

WIZ003>005-009-010-017-018-241700-
NORTH CENTRAL WISCONSIN

CITY           SKY/WX    TMP DP  RH WIND       PRES   REMARKS
MANITOWISH WTR FAIR      56  38  51 CALM      30.28S
ARBOR VITAE    FAIR      57  22  25 S3        30.27F
WOODRUFF       FAIR      57  22  25 S3        30.27F
RHINELANDER    FAIR      58  35  42 SE5       30.29F
EAGLE RIVER    FAIR      58  33  39 CALM      30.28S
LAND O LAKES   FAIR      57  33  41 S5        30.30S
PHILLIPS       FAIR      58  34  41 SE5       30.26F
TOMAHAWK       FAIR      60  35  39 SE3       30.28S
MEDFORD        FAIR      59  37  44 E8        30.27S
MERRILL        FAIR      59  35  39 E3        30.26F
$$

WIZ029-030-035-036-043>047-241700-
CENTRAL WISCONSIN

CITY           SKY/WX    TMP DP  RH WIND       PRES   REMARKS
WAUSAU         FAIR      62  34  35 E6        30.26F
MOSINEE        MOSUNNY   57  34  41 E8        30.28F
MARSHFIELD     FAIR      59  34  39 SE12      30.27S
STEVENS POINT  FAIR      60  28  30 SE8       30.28F
WAUPACA        FAIR      63  35  35 NE6       30.28F
WAUTOMA        FAIR      61  38  42 SE13      30.27F
WISC RAPIDS    FAIR      60  31  33 E13G18    30.27F
CAMP DOUGLAS   NOT AVBL
$$

WIZ011>013-019>022-031-037>040-048>050-241700-
NORTHEAST WISCONSIN

CITY           SKY/WX    TMP DP  RH WIND       PRES   REMARKS
ANTIGO         FAIR      58  36  44 E9        30.28F
SHAWANO        FAIR      61  40  46 NE5       30.29S
OCONTO         FAIR      57  35  43 NE3       30.30F
STURGEON BAY   FAIR      55  36  48 VRB3      30.31F
GREEN BAY      FAIR      62  37  39 SE8       30.30S
MANITOWOC      FAIR      57  40  52 SE6       30.30F
APPLETON       PTSUNNY   59  34  38 E6        30.27S
CLINTONVILLE   NOT AVBL
OSHKOSH        FAIR      59  42  53 NE8       30.28S
$$

WIZ032>034-041-042-053>061-241700-
SOUTHWEST WISCONSIN

CITY           SKY/WX    TMP DP  RH WIND       PRES   REMARKS
LA CROSSE      FAIR      60  37  42 E12       30.24F
SPARTA         NOT AVBL
VIROQUA          N/A     57  34  42 E10       30.24S
BOSCOBEL       CLOUDY    61  37  41 VRB3      30.23F
PRAIRIE DU CHI FAIR      59  35  41 E6        30.22F
PLATTEVILLE    PTSUNNY   56  41  57 E10       30.23S
$$

WIZ056-057-062-063-064-067-068-241700-
SOUTH CENTRAL WISCONSIN

CITY           SKY/WX    TMP DP  RH WIND       PRES   REMARKS
REEDSBURG      FAIR      59  38  44 E8        30.25S
BARABOO/DELLS  FAIR      58  36  44 E9        30.26R
LONE ROCK      PTSUNNY   60  38  43 E13G18    30.24S
MINERAL POINT  FAIR      55  37  50 E12       30.23F
MADISON        CLOUDY    57  41  55 SE5       30.25S
MIDDLETON      CLOUDY    58  42  54 E6        30.26S
WATERTOWN      PTSUNNY   60  42  50 SE7       30.26R
MONROE         FAIR      55  40  57 SE6       30.23S
JANESVILLE     CLOUDY    61  41  48 SE8       30.24S
$$

WIZ051-052-058>065-066-070>072-241700-
SOUTHEAST WISCONSIN

CITY           SKY/WX    TMP DP  RH WIND       PRES   REMARKS
MILWAUKEE      PTSUNNY   57  45  64 E6        30.28S
WAUKESHA       PTSUNNY   57  43  58 E9        30.27F
MILWAUKEE/TIMM PTSUNNY   57  39  51 E9        30.28F
RACINE         FAIR      54  45  71 E6        30.29S
KENOSHA        PTSUNNY   57  47  69 E10       30.27S
FOND DU LAC    CLOUDY    61  42  49 E8        30.27S
SHEBOYGAN      FAIR      56  44  64 NE6       30.29F
WEST BEND      PTSUNNY   59  43  55 SE8       30.28S
JUNEAU         CLOUDY    58  43  57 SE8       30.28R
$$

LSZ147-162-241700-
LAKE SUPERIOR

STATION/POSITION TIME  TEMP    WIND        PRES    WAVE
                       AIR SEA DIR/SP/G            HT/PER
                 (UTC) (F)     (DEG/KT/KT) (MB)    (FT/S)
W MID LAKE BUOY  1550   42 35  210/ 10/ 10 1024.6F   1/ 3
DEVILS ISLAND    1500   52     230/  3/  4 1024.7R
PORT WING        1530   48     340/  3/  6 1023.4F
SAXON HARBOR     1530   64     250/  7/ 10 1023.7S
$$

LMZ867-665-643>646-241700-
LAKE MICHIGAN

STATION/POSITION TIME  TEMP    WIND        PRES    WAVE
                       AIR SEA DIR/SP/G            HT/PER
                 (UTC) (F)     (DEG/KT/KT) (MB)    (FT/S)
N MID LAKE BUOY  1550   40 38  100/  6/  6 1027.2F   0
NORTHPORT PIER   1540   46     100/  5/  7 1027.4S
KEWAUNEE LAKESHO 1524   49      30/  5/  7 1024.4
SHEBOYGAN LAKESH 1600   45      30/  5/  5 1026.8R
PORT WASHINGTON  1540   50      40/  9/ 11 1026.8S
MILWAUKEE LAKESH 1550   49      50/  7/  7   N/A
S MID LAKE BUOY  1550   46 45   50/  6/  8 1025.7F   1
KENOSHA   LAKESH 1600   49      50/  5/  6 1025.4
$$

TC  - TEMPERATURE IN CELSIUS
VSB - VISIBILITY IN STATUTE MILES
WCI - WIND CHILL INDEX
HX  - HEAT INDEX




USA.gov is the U.S. government's official web portal to all federal, state and local government web resources and services.